Hourly Weather Krajanki

Today, 31 October, Saturday

Time Temperature Precipitation Wind Pressure Humidity
00:00 +9°C° 0 mm 1 mps 754 mmHg 93%
01:00 +8°C° 0 mm 1 mps 754 mmHg 94%
02:00 +8°C° 0 mm 1 mps 755 mmHg 94%
03:00 +8°C° 0 mm 1 mps 755 mmHg 94%
04:00 +6°C° 0 mm 2 mps 755 mmHg 94%
05:00 +7°C° 0 mm 1 mps 756 mmHg 93%
06:00 +7°C° 0 mm 1 mps 756 mmHg 93%
07:00 +6°C° 0 mm 1 mps 757 mmHg 93%
08:00 +8°C° 0 mm 1 mps 757 mmHg 87%
09:00 +9°C° 0 mm 1 mps 757 mmHg 81%
10:00 +9°C° 0 mm 0 mps 758 mmHg 74%
11:00 +10°C° 0 mm 0 mps 758 mmHg 70%
12:00 +11°C° 0 mm 0 mps 758 mmHg 66%
13:00 +11°C° 0 mm 0 mps 758 mmHg 62%
14:00 +11°C° 0 mm 0 mps 758 mmHg 66%
15:00 +11°C° 0 mm 1 mps 758 mmHg 69%
16:00 +10°C° 0 mm 1 mps 758 mmHg 72%
17:00 +9°C° 0 mm 1 mps 758 mmHg 75%
18:00 +9°C° 0 mm 1 mps 758 mmHg 78%
19:00 +7°C° 0 mm 2 mps 758 mmHg 80%
20:00 +7°C° 0 mm 2 mps 758 mmHg 81%
21:00 +7°C° 0 mm 2 mps 758 mmHg 82%
22:00 +6°C° 0 mm 2 mps 758 mmHg 83%
23:00 +6°C° 0 mm 2 mps 758 mmHg 84%

Tomorrow, 1 November, Sunday

Time Temperature Precipitation Wind Pressure Humidity
00:00 +5°C° 0 mm 3 mps 758 mmHg 85%
01:00 +5°C° 0 mm 3 mps 757 mmHg 86%
02:00 +4°C° 0 mm 3 mps 757 mmHg 86%
03:00 +4°C° 0 mm 3 mps 756 mmHg 87%
04:00 +4°C° 0 mm 3 mps 756 mmHg 87%
05:00 +4°C° 0 mm 3 mps 756 mmHg 86%
06:00 +4°C° 0 mm 3 mps 756 mmHg 86%
07:00 +4°C° 0 mm 4 mps 755 mmHg 85%
08:00 +5°C° 0 mm 4 mps 755 mmHg 79%
09:00 +7°C° 0 mm 4 mps 755 mmHg 74%
10:00 +8°C° 0 mm 5 mps 754 mmHg 68%
11:00 +9°C° 0 mm 5 mps 754 mmHg 69%
12:00 +11°C° 0 mm 4 mps 753 mmHg 70%
13:00 +12°C° 0 mm 4 mps 753 mmHg 71%
14:00 +11°C° 0 mm 4 mps 752 mmHg 75%
15:00 +11°C° 0 mm 4 mps 752 mmHg 80%
16:00 +11°C° 0 mm 3 mps 751 mmHg 85%
17:00 +11°C° 0.9 mm 3 mps 751 mmHg 89%
18:00 +11°C° 0.9 mm 4 mps 751 mmHg 92%
19:00 +11°C° 0.9 mm 4 mps 751 mmHg 96%
20:00 +11°C° 0.8 mm 4 mps 750 mmHg 96%
21:00 +11°C° 0.8 mm 4 mps 750 mmHg 95%
22:00 +11°C° 0.8 mm 4 mps 750 mmHg 95%
23:00 +11°C° 0.4 mm 4 mps 749 mmHg 95%

Day after tomorrow, 2 November, Monday

Time Temperature Precipitation Wind Pressure Humidity
00:00 +11°C° 0.4 mm 4 mps 749 mmHg 95%
01:00 +11°C° 0.4 mm 4 mps 749 mmHg 95%
02:00 +11°C° 0.3 mm 4 mps 749 mmHg 95%
03:00 +11°C° 0.3 mm 4 mps 749 mmHg 94%
04:00 +11°C° 0.3 mm 4 mps 749 mmHg 94%
05:00 +12°C° 0 mm 4 mps 749 mmHg 93%
06:00 +12°C° 0 mm 4 mps 750 mmHg 93%
07:00 +12°C° 0 mm 4 mps 750 mmHg 92%
08:00 +12°C° 0 mm 4 mps 750 mmHg 88%
09:00 +13°C° 0 mm 4 mps 750 mmHg 85%
10:00 +13°C° 0 mm 4 mps 751 mmHg 81%
11:00 +13°C° 0 mm 3 mps 751 mmHg 82%
12:00 +13°C° 0 mm 3 mps 751 mmHg 83%
13:00 +12°C° 0 mm 3 mps 751 mmHg 84%
14:00 +12°C° 0 mm 3 mps 751 mmHg 87%
15:00 +12°C° 0 mm 3 mps 751 mmHg 90%
16:00 +12°C° 0 mm 3 mps 751 mmHg 92%
17:00 +12°C° 0 mm 3 mps 751 mmHg 93%
18:00 +12°C° 0 mm 3 mps 751 mmHg 94%
19:00 +13°C° 0 mm 3 mps 751 mmHg 95%
20:00 +13°C° 0 mm 3 mps 751 mmHg 94%
21:00 +14°C° 0 mm 4 mps 751 mmHg 93%
22:00 +14°C° 0 mm 4 mps 751 mmHg 92%
23:00 +14°C° 0 mm 4 mps 751 mmHg 92%

3 November, Tuesday

Time Temperature Precipitation Wind Pressure Humidity
00:00 +13°C° 0 mm 4 mps 751 mmHg 92%
01:00 +13°C° 0 mm 4 mps 751 mmHg 92%
02:00 +13°C° 0 mm 4 mps 752 mmHg 92%
03:00 +13°C° 0 mm 4 mps 752 mmHg 91%
04:00 +14°C° 0 mm 4 mps 752 mmHg 91%
05:00 +14°C° 0 mm 4 mps 752 mmHg 92%
06:00 +14°C° 0 mm 3 mps 752 mmHg 92%
07:00 +14°C° 0 mm 3 mps 753 mmHg 92%
08:00 +14°C° 0.2 mm 4 mps 753 mmHg 85%
09:00 +14°C° 0.2 mm 4 mps 754 mmHg 77%
10:00 +14°C° 0.2 mm 5 mps 755 mmHg 69%
11:00 +13°C° 0 mm 5 mps 755 mmHg 67%
12:00 +13°C° 0 mm 5 mps 756 mmHg 64%
13:00 +13°C° 0 mm 5 mps 756 mmHg 61%
14:00 +12°C° 0 mm 5 mps 757 mmHg 64%
15:00 +12°C° 0 mm 4 mps 757 mmHg 66%
16:00 +11°C° 0 mm 3 mps 757 mmHg 69%
17:00 +10°C° 0 mm 3 mps 758 mmHg 72%
18:00 +9°C° 0 mm 3 mps 758 mmHg 75%
19:00 +9°C° 0 mm 3 mps 759 mmHg 78%
20:00 +8°C° 0 mm 3 mps 759 mmHg 79%
21:00 +8°C° 0 mm 3 mps 760 mmHg 80%
22:00 +8°C° 0 mm 3 mps 760 mmHg 81%
23:00 +8°C° 0 mm 3 mps 760 mmHg 80%

4 November, Wednesday

Time Temperature Precipitation Wind Pressure Humidity
00:00 +8°C° 0 mm 3 mps 760 mmHg 79%
01:00 +8°C° 0 mm 3 mps 760 mmHg 78%
02:00 +7°C° 0 mm 3 mps 760 mmHg 80%
03:00 +7°C° 0 mm 3 mps 761 mmHg 83%
04:00 +5°C° 0 mm 3 mps 761 mmHg 85%
05:00 +5°C° 0 mm 3 mps 761 mmHg 86%
06:00 +5°C° 0 mm 3 mps 761 mmHg 87%
07:00 +4°C° 0 mm 3 mps 761 mmHg 88%
08:00 +5°C° 0 mm 3 mps 762 mmHg 83%
09:00 +7°C° 0 mm 3 mps 762 mmHg 77%
10:00 +7°C° 0 mm 4 mps 762 mmHg 72%
11:00 +8°C° 0 mm 4 mps 762 mmHg 69%
12:00 +9°C° 0 mm 3 mps 762 mmHg 65%
13:00 +10°C° 0 mm 3 mps 762 mmHg 62%
14:00 +9°C° 0 mm 3 mps 762 mmHg 66%
15:00 +8°C° 0 mm 2 mps 762 mmHg 69%
16:00 +7°C° 0 mm 2 mps 762 mmHg 72%
17:00 +7°C° 0 mm 2 mps 762 mmHg 75%
18:00 +8°C° 0 mm 1 mps 763 mmHg 77%
19:00 +7°C° 0 mm 1 mps 763 mmHg 79%
20:00 +7°C° 0 mm 1 mps 763 mmHg 80%
21:00 +7°C° 0 mm 1 mps 763 mmHg 81%
22:00 +6°C° 0 mm 1 mps 763 mmHg 82%
23:00 +6°C° 0 mm 1 mps 764 mmHg 83%

5 November, Thursday

Time Temperature Precipitation Wind Pressure Humidity
00:00 +6°C° 0 mm 1 mps 764 mmHg 83%
01:00 +6°C° 0 mm 1 mps 764 mmHg 84%
02:00 +6°C° 0 mm 1 mps 764 mmHg 85%
03:00 +5°C° 0 mm 1 mps 764 mmHg 86%
04:00 +5°C° 0 mm 1 mps 764 mmHg 87%
05:00 +5°C° 0 mm 1 mps 764 mmHg 87%
06:00 +5°C° 0 mm 1 mps 764 mmHg 88%
07:00 +5°C° 0 mm 1 mps 764 mmHg 89%
08:00 +6°C° 0 mm 1 mps 765 mmHg 86%
09:00 +6°C° 0 mm 2 mps 765 mmHg 83%
10:00 +6°C° 0 mm 2 mps 765 mmHg 80%
11:00 +7°C° 0 mm 2 mps 765 mmHg 76%
12:00 +8°C° 0 mm 2 mps 765 mmHg 72%
13:00 +9°C° 0 mm 2 mps 765 mmHg 67%
14:00 +8°C° 0 mm 2 mps 765 mmHg 71%
15:00 +7°C° 0 mm 2 mps 765 mmHg 74%
16:00 +6°C° 0 mm 2 mps 765 mmHg 78%
17:00 +6°C° 0 mm 2 mps 766 mmHg 80%
18:00 +5°C° 0 mm 2 mps 766 mmHg 82%
19:00 +5°C° 0 mm 2 mps 766 mmHg 85%
20:00 +4°C° 0 mm 2 mps 766 mmHg 86%
21:00 +4°C° 0 mm 2 mps 767 mmHg 88%
22:00 +4°C° 0 mm 2 mps 767 mmHg 89%
23:00 +4°C° 0 mm 2 mps 767 mmHg 90%
Show more